STARLINK-5737, 55570

Orbit data source: Space-Track

STARLINK-5737, 55570 is a payload satellite owned by SpaceX/Seattle (US) in LEO that was launched on Sun, 12 Feb 2023 UTC via an FALCON 9 launch vehicle from the Air Force Eastern Test Range (AFETR). Payload-class satellites include a variety of spacecraft equipped with specific instruments for various scientific and technological missions. These include communications satellites like Starlink; space stations such as the ISS; scientific satellites like the Hubble; Earth observation satellites from companies like Planet Labs, Umbra, and HawkEye 360; GPS; miniature CubeSats for education and research; and military/defense satellites.

Loading next visibility...
Identifier
55570, 2023-020B
Orbit
LEO
Country
Flag of USUS
Related business
Manufacturer
SpaceX/Seattle
Mission
Operational Commercial Communications
Bus & Motor
STARLINK, Unknown motor
Mass
305 kg wet, ~290 kg dry
Launch date (UTC)
2023-02-12 (3 years ago)
Launch vehicle
FALCON 9
Launch site
Air Force Eastern Test Range (AFETR)
Object type
Payload
Rocket body
Debris
Shape & HBR
Box + 1 Pan, 10.1 m
Radar Cross Section
13.562 m², Large (>1 m²)

Expand to show TLE details & history
Last TLE update: 17 hours ago

TLE from 17 hours ago
0 STARLINK-5737
1 55570U 23020B   25340.74637990  .00004492  00000-0  34710-3 0  9995
2 55570  43.0027 150.0617 0001579 267.7715  92.2947 15.02569255154932
Epoch: 2025-12-06T17:54Z
TLE epoch observation values (Epoch: 2025-12-06T17:54:47.223Z)
Latitude
0.00002°
Longitude
165.59526°
Altitude
558.799 km
Speed
7.584 km/s
True Right ascension
10h 00m 14s
True Declination
0° 00' 00"
Sunlit
Object was in daylight at epoch
Visualization orbit readout
Latitude
Unknown
Longitude
Unknown
Altitude
Unknown
Speed
Unknown
Apparent Right ascension
Unknown
Apparent Declination
Unknown
Sunlit
N/A
Visualization observer readout
Local Sidereal Time
09:24:47
Azimuth
Unknown
Elevation
Unknown
Doppler factor
Unknown
Orbital elements
Apogee altitude
561.996 km
Perigee altitude
559.805 km
Semi-major axis
6,939.038 km
Eccentricity
0.00016
Inclination
43.0027°
RAAN
150.0617°
Arg. of periapsis
267.7715°
True anomaly
92.31278°
Mean anomaly
92.2947°
Eccentric anomaly
92.30374°
Mean motion
3.75486 °/min
Orbital period
95.88 mins
BSTAR
0.0003471
Loading maneuver chart data...
Computing Atmospheric mass density...
Loading historical data...
Loading historical data...
Loading historical data...
Loading historical data...
Loading historical data...
Loading historical data...
Loading historical data...

Documentation

Showing up to 5 results
|